sat.trackr.live / text

‹ back to catalog

SDO

NORAD 36395 · 2010-005A

PAYLOAD ACTIVE UNKNOWN

§ Identity

Operator
Country
US
Launch date
2010-02-11
Launch site
AFETR
Launch vehicle
Mass (kg)
RCS (m²)
5.17

Purposes: comms, science

External: N2YO · Heavens-Above · Gunter

§ Orbital elements

Epoch: 2026-09-19T12:06:09.349632Z

Period
1,436.05 min
Inclination
34.8457°
Eccentricity
0.0001506
Mean motion
1.00275014 rev/d
Perigee alt
35,779.3 km
Apogee alt
35,792.0 km
Semi-major
42,163.8 km
B*
0.0000e+0
RAAN
84.9076°
Arg perigee
82.9624°
Mean anomaly
270.4923°
Rev number
6,100

§ Raw data

SDO1 36395U 10005A   26262.50427488 -.00000066  00000+0  00000+0 0  99992 36395  34.8457  84.9076 0001506  82.9624 270.4923  1.00275014 61000

JSON: /api/v1/satellites/36395 · /tle

For live sub-satellite position, see the globe view (requires WebGL).

§ Visibility from observer

Set your observer location to see the next 7 days of passes ≥ 10°. The values pass through the URL so the page stays shareable.

No JS? Fill the form by hand. The geolocation button needs JavaScript.